Regional Weather Roundup
Issued by NWS Columbia, SC

Home | Current Version | Previous Version | Text Only | Print | Product List | Glossary On
Versions: 1 2 3 4 5 6 7 8 9 10 11 12 13 14 15 16 17 18 19 20 21 22 23 24 25 26 27 28 29 30 31 32 33 34 35 36 37 38 39 40 41 42 43 44 45 46 47 48 49 50
000
ASUS42 KCAE 220410
RWRCAE
REGIONAL WEATHER ROUNDUP
NATIONAL WEATHER SERVICE COLUMBIA SC
1100 PM EST SUN DEC 21 2014

NOTE: "FAIR" INDICATES FEW OR NO CLOUDS BELOW 12,000 FEET WITH NO
SIGNIFICANT WEATHER AND/OR OBSTRUCTIONS TO VISIBILITY.

NOT ALL STATIONS ARE QUALITY CONTROLLED BY THE NATIONAL
WEATHER SERVICE. USE DATA WITH CAUTION...ESPECIALLY
DEWPOINT OBSERVATIONS.

SCZ001>056-GAZ040-063>065-077-220500-
...UPSTATE SOUTH CAROLINA...

CITY           SKY/WX    TMP DP  RH WIND       PRES   REMARKS
ANDERSON       LGT RAIN  47  40  76 E10       30.17R
LIBERTY        DRIZZLE   46  42  86 MISG      30.17R
SPARTANBURG    FAIR      46  39  76 NE7       30.17S
CLEMSON        LGT RAIN  48  39  71 E9        30.16S
GREENVILLE     LGT RAIN  46  38  73 NE10      30.17S
GREENWOOD      LGT RAIN  45  42  89 NE6       30.16F FOG
GREER          CLOUDY    46  39  76 NE7       30.16R
ROCK HILL      CLOUDY    46  38  73 NE5       30.18S
CHESTER        CLOUDY    48  37  66 NE7       30.17F
LAURENS        DRIZZLE   45  43  93 NE5       30.17R


...CENTRAL SOUTH CAROLINA...

CITY           SKY/WX    TMP DP  RH WIND       PRES   REMARKS
COLUMBIA APT   LGT RAIN  48  45  89 CALM      30.16S FOG
COLUMBIA OWENS LGT RAIN  48  45  89 NE3       30.16S FOG
DARLINGTON     CLOUDY    45  37  76 N6        30.20R
FLORENCE       CLOUDY    48  38  68 E9        30.17S
MCENTIRE ANGB  LGT RAIN  46  45  95 NE7       30.15F
ORANGEBURG     LGT RAIN  47  43  86 NE6       30.12F FOG
SUMTER SHAW    LGT RAIN  46  44  91 NE8       30.13F
NEWBERRY       CLOUDY    45 N/A N/A NE7       30.19S
AIKEN          RAIN      45  45 100 NE8       30.15F
BARNWELL       LGT RAIN  46  46 100 NE13      30.11F
CAMDEN         CLOUDY    45  43  93 NE7       30.17F FOG
LANCASTER      LGT RAIN  45  43  93 NE7       30.18S
WINNSBORO      RAIN      45  43  93 NE8       30.15F


...EASTERN AND COASTAL SOUTH CAROLINA...

CITY           SKY/WX    TMP DP  RH WIND       PRES   REMARKS
MYRTLE BEACH   CLOUDY    46  39  76 NE13      30.13F
N MYRTLE BCH   LGT RAIN  45  41  86 NE10      30.14F
CONWAY         LGT RAIN  45  45 100 N5        30.16S
MARION         CLOUDY    46  37  71 NE5       30.18R
HARTSVILLE     CLOUDY    45  43  93 NE8       30.18R
FLORENCE       CLOUDY    48  38  68 E9        30.17S
DARLINGTON     CLOUDY    45  37  76 N6        30.20R
CHARLESTON APT LGT RAIN  46  45  93 NE9       30.10F
MOUNT PLEASANT LGT RAIN  48  48 100 NE5       30.12S
WALTERBORO     DRIZZLE   46 N/A N/A NE5       30.11F
BEAUFORT       CLOUDY    48  46  93 N8        30.11S


...EASTERN GEORGIA...

CITY           SKY/WX    TMP DP  RH WIND       PRES   REMARKS
AUGUSTA BUSH F LGT RAIN  48  46  93 NE7       30.13S
AUGUSTA DANIEL CLOUDY    48  46  93 NE7       30.13F
THOMSON        CLOUDY    49  49 100 E7        30.16F
WASHINGTON     MOCLDY    50  50 100 NE5       30.12F
CLAXTON        CLOUDY    46  46 100 NE6       30.11S
SYLVANIA       DRIZZLE   46  46 100 E6        30.11F
STATESBORO     CLOUDY    46  46 100 E6        30.10F
SAVANNAH       CLOUDY    46  45  93 N7        30.11R


...SOUTHERN NORTH CAROLINA...

CITY           SKY/WX    TMP DP  RH WIND       PRES   REMARKS
CHARLOTTE      CLOUDY    46  36  68 E8        30.19F
MONROE         CLOUDY    46  37  71 NE8       30.18S
WADESBORO      CLOUDY    46  39  78 NE3       30.19S
ROCKINGHAM     CLOUDY    44  38  79 NE7       30.19S
RUTHERFORDTON  CLOUDY    43  39  83 NW3       30.21R
ASHEVILLE      CLOUDY    40  38  93 CALM      30.15F

$$



USA.gov is the U.S. government's official web portal to all federal, state and local government web resources and services.